{"data":{"norad_id":61521,"intl_designator":"2024-183N","name":"STARLINK-32297","alt_names":[],"object_type":"PAYLOAD","status":"ACTIVE","operator":null,"country":"US","launch_date":"2024-10-15","launch_site_code":"AFETR","launch_vehicle":null,"mission":null,"orbit_class":"UNKNOWN","rcs_meters":null,"size_class":null,"mass_kg":null,"dimensions":null,"purposes":["comms"],"wikipedia_slug":null,"has_3d_model":false,"image_url":null,"decayed_at":null,"tle_current":{"epoch":"2026-09-21T10:43:06.011040Z","epoch_age_seconds":110393,"freshness":"FRESH","line1":"1 61521U 24183N   26264.44659735  .00001483  00000+0  55038-4 0  9996","line2":"2 61521  53.1587 311.0495 0001152  81.7834 278.3299 15.34393681109653","mean_motion":15.34393681,"eccentricity":0.0001152,"inclination_deg":53.1587,"raan_deg":311.0495,"arg_perigee_deg":81.7834,"mean_anomaly_deg":278.3299,"bstar":5.5038e-5,"rev_number":10965,"period_min":93.848144568838,"perigee_km":461.93395471193,"apogee_km":463.51008863053,"semimajor_km":6840.8590216712,"source":"CELESTRAK","updated_at":"2026-09-22T09:00:49.357363Z"}}}